Flag for Germany Weather past 2 weeks in Limburg an der Lahn, Hesse, Germany

Now
52 °F

Passing clouds.


Feels Like: 48 °F
Forecast: 47 / 62 °F
Wind: 12 mph from Southwest

Location: Hessen

Current Time: May 29, 2015 at 12:57:42 PM

Latest Report: May 29, 2015 at 12:20 PM


Visibility: N/A

Pressure: 29.89 "Hg

Humidity: 72%

Dew point: 43 °F

Location of Limburg an der LahnLocation

Historic Weather in Limburg an der Lahn — Graph

°F

Limburg an der Lahn temperature yesterday

Maximum temperature yesterday: 59 °F (at 12:50 PM)
Minimum temperature yesterday: 46 °F (at 7:20 AM)
Average temperature yesterday: 54 °F

Past Weeks' High & Low Weather Summary

 TemperatureHumidityPressure
High64 °F (May 15, 3:50 PM)100% (May 16, 7:50 AM)30.33 "Hg (May 16, 7:50 AM)
Low41 °F (May 16, 7:50 AM)31% (May 14, 3:50 PM)29.68 "Hg (May 18, 9:20 PM)
Average53 °F66%30.06 "Hg
* Reported May 14 11:20 AM — May 29 11:20 AM, Limburg an der Lahn, Weather by CustomWeather, © 2015

Note: Actual official high and low records may vary slightly from our data, if they occured in-between our weather recording intervals... More about our weather records

Advertising

Limburg an der Lahn weather history for previous 24 hours

 ConditionsComfort  
Time TempWeatherWind HumidityBarometerVisibility
11:20 AM
Fri, May 29
50 °FPartly sunny.12 mph71%29.89 "HgN/A
10:50 AM52 °FBroken clouds.14 mph62%29.89 "HgN/A
10:20 AM52 °FPassing clouds.12 mph62%29.89 "HgN/A
9:50 AM50 °FPassing clouds.12 mph67%29.89 "HgN/A
9:20 AM50 °FPassing clouds.8 mph71%29.89 "HgN/A
8:50 AM50 °FPassing clouds.8 mph76%29.89 "HgN/A
8:20 AM48 °FPassing clouds.7 mph82%29.89 "HgN/A
7:50 AM46 °FPassing clouds.7 mph87%29.89 "HgN/A
9:50 PM
Thu, May 28
50 °FPassing clouds.7 mph82%29.95 "HgN/A
9:20 PM52 °FPassing clouds.7 mph77%29.95 "HgN/A
8:50 PM54 °FPassing clouds.9 mph67%29.95 "HgN/A
8:20 PM54 °FScattered clouds.7 mph72%29.95 "HgN/A
7:50 PM55 °FScattered clouds.10 mph67%29.95 "HgN/A
7:20 PM55 °FScattered clouds.6 mph77%29.95 "HgN/A
6:50 PM55 °FPassing clouds.8 mph77%29.95 "HgN/A
6:20 PM57 °FPassing clouds.7 mph72%29.95 "HgN/A
5:50 PM55 °FScattered clouds.6 mph77%29.92 "HgN/A
5:20 PM54 °FScattered clouds.6 mph82%29.92 "HgN/A
4:50 PM52 °FLight rain. Scattered clouds.7 mph88%29.95 "HgN/A
4:20 PM57 °FBroken clouds.6 mph67%29.95 "HgN/A
3:50 PM57 °FOvercast.6 mph67%29.95 "HgN/A
3:20 PM57 °FPartly sunny.8 mph67%29.95 "HgN/A
2:50 PM57 °FPartly sunny.8 mph67%29.95 "HgN/A
2:20 PM57 °FPartly sunny.8 mph67%29.95 "HgN/A
1:50 PM59 °FPartly sunny.10 mph63%29.98 "HgN/A
1:20 PM59 °FPartly sunny.14 mph63%29.98 "HgN/A
12:50 PM59 °FBroken clouds.13 mph63%29.98 "HgN/A
12:20 PM57 °FPartly sunny.15 mph67%29.98 "HgN/A
Weather by CustomWeather, © 2015

See weather overviewHow to use our weather pages